Weather History for Charleston, WV

Change the Weather History Date:

Wednesday, March 20, 2013

  Actual Average Record
Temperature  
Mean Temperature 39 °F 47 °F  
Max Temperature 49 °F 58 °F 90 °F (1921)
Min Temperature 28 °F 37 °F 15 °F (1923)
Degree Days  
Heating Degree Days 26 18  
Month to date heating degree days 489 423  
Since 1 July heating degree days 3872 3877  
Cooling Degree Days 0 0  
Month to date cooling degree days 0 0  
Year to date cooling degree days 0 0  
Moisture  
Dew Point 14 °F    
Average Humidity 38    
Maximum Humidity 53    
Minimum Humidity 23    
Precipitation  
Precipitation T in 0.12 in 0.90 in (1989)
Month to date precipitation 2.06 2.58  
Year to date precipitation 8.09 8.77  
Snow  
Snow T in - - ()
Month to date snowfall 1.8  
Since 1 September snowfall 24.6  
Snow Depth 0.00 in    
Sea Level Pressure  
Sea Level Pressure 29.98 in    
Wind  
Wind Speed 13 mph (WSW)    
Max Wind Speed 31 mph    
Max Gust Speed 41 mph    
Visibility 10 miles    
Events      
T = Trace of Precipitation, MM = Missing Value Source: NWS Daily Summary

Daily Weather History Graph

Daily Weather History Graph

Search for Another Location

Airport:

Trip Planner

Search our weather history database for the weather conditions in past years. The results will help you decide how hot, cold, wet, or windy it might be!

Date:

Astronomy

Mar. 20, 2013 Rise Set
Actual Time 7:29 AM EDT 7:38 PM EDT
Civil Twilight 7:03 AM EDT 8:04 PM EDT
Nautical Twilight 6:32 AM EDT 8:35 PM EDT
Astronomical Twilight 6:00 AM EDT 9:07 PM EDT
Moon 1:16 PM EDT (3/20) 3:03 AM EDT (3/20)
Length of Visible Light 13h 01m
Length of Day
12h 09m
First Quarter, 59% of the Moon is Illuminated
Mar 20
First Quarter
Mar 27
Full
Apr 3
Last Quarter
Apr 10
New
Apr 18
First Quarter

Hourly Weather History & Observations

Time (EDT) Temp. Windchill Dew Point Humidity Pressure Visibility Wind Dir Wind Speed Gust Speed Precip Events Conditions
12:54 AM 39.0 °F 31.8 °F 10.0 °F 30% 30.09 in 10.0 mi West 11.5 mph 19.6 mph N/A   Clear
1:54 AM 37.9 °F 30.9 °F 10.9 °F 33% 30.09 in 10.0 mi WSW 10.4 mph - N/A   Clear
2:54 AM 36.0 °F 29.0 °F 12.0 °F 37% 30.09 in 10.0 mi SW 9.2 mph - N/A   Clear
3:54 AM 35.1 °F 27.4 °F 12.0 °F 39% 30.07 in 10.0 mi SW 10.4 mph - N/A   Clear
4:54 AM 34.0 °F 26.6 °F 12.9 °F 42% 30.06 in 10.0 mi SW 9.2 mph - N/A   Clear
5:54 AM 33.1 °F 26.1 °F 12.9 °F 43% 30.06 in 10.0 mi SW 8.1 mph - N/A   Clear
6:54 AM 32.0 °F 26.4 °F 14.0 °F 48% 30.07 in 10.0 mi SW 5.8 mph - N/A   Clear
7:54 AM 30.9 °F 27.5 °F 16.0 °F 54% 30.08 in 10.0 mi Variable 3.5 mph - N/A   Clear
8:54 AM 35.1 °F 28.6 °F 15.1 °F 44% 30.09 in 10.0 mi SW 8.1 mph - N/A   Clear
9:54 AM 37.9 °F 32.1 °F 15.1 °F 39% 30.06 in 10.0 mi SW 8.1 mph - N/A   Partly Cloudy
10:54 AM 41.0 °F 33.9 °F 14.0 °F 33% 30.04 in 10.0 mi West 12.7 mph 17.3 mph N/A   Scattered Clouds
11:54 AM 44.1 °F 39.0 °F 14.0 °F 30% 30.00 in 10.0 mi West 9.2 mph 20.7 mph N/A   Scattered Clouds
12:54 PM 46.0 °F 38.5 °F 14.0 °F 28% 29.97 in 10.0 mi SW 19.6 mph 31.1 mph N/A   Scattered Clouds
1:54 PM 46.9 °F - 14.0 °F 27% 29.93 in 10.0 mi West 16.1 mph 28.8 mph N/A   Scattered Clouds
2:54 PM 48.0 °F - 12.9 °F 24% 29.90 in 10.0 mi WSW 17.3 mph 26.5 mph N/A   Mostly Cloudy
3:54 PM 46.9 °F - 14.0 °F 27% 29.86 in 10.0 mi WSW 25.3 mph 38.0 mph N/A   Overcast
4:14 PM 46.4 °F 37.7 °F 14.0 °F 27% 29.85 in 10.0 mi WSW 26.5 mph 36.8 mph N/A   Mostly Cloudy
4:54 PM 46.0 °F 39.6 °F 16.0 °F 30% 29.85 in 10.0 mi West 15.0 mph 29.9 mph N/A   Mostly Cloudy
5:54 PM 45.0 °F 37.9 °F 17.1 °F 33% 29.83 in 10.0 mi West 16.1 mph 38.0 mph N/A   Mostly Cloudy
6:54 PM 43.0 °F 34.0 °F 19.0 °F 38% 29.84 in 10.0 mi WNW 21.9 mph 38.0 mph N/A   Overcast
7:54 PM 41.0 °F 32.5 °F 17.1 °F 38% 29.88 in 10.0 mi West 17.3 mph 35.7 mph N/A   Overcast
8:54 PM 37.0 °F 30.4 °F 21.0 °F 52% 29.90 in 10.0 mi NNW 9.2 mph 19.6 mph 0.00 in   Overcast
9:54 PM 35.1 °F 23.5 °F 15.1 °F 44% 29.91 in 10.0 mi NW 21.9 mph 28.8 mph N/A   Overcast
10:54 PM 34.0 °F 25.0 °F 12.0 °F 40% 29.93 in 10.0 mi NNW 12.7 mph 18.4 mph N/A   Overcast
11:54 PM 30.0 °F 19.1 °F 14.0 °F 51% 29.95 in 10.0 mi NNW 15.0 mph 27.6 mph N/A   Overcast